TimeCDT,TemperatureF,Dew PointF,Humidity,Sea Level PressureIn,VisibilityMPH,Wind Direction,Wind SpeedMPH,Gust SpeedMPH,PrecipitationIn,Events,Conditions,WindDirDegrees,DateUTC
12:42 AM,62.6,60.8,94,29.91,10.0,North,3.5,-,N/A,Rain-Thunderstorm,Light Thunderstorms and Rain,360,2013-03-19 05:42:00
12:49 AM,62.6,60.8,94,29.91,10.0,North,1.2,-,N/A,Thunderstorm,Thunderstorm,350,2013-03-19 05:49:00
12:58 AM,62.2,61.5,97,29.91,10.0,Variable,1.2,-,0.03,Thunderstorm,Thunderstorm,0,2013-03-19 05:58:00
12:59 AM,62.6,60.8,94,29.91,10.0,NNW,4.6,-,N/A,,Light Drizzle,340,2013-03-19 05:59:00
1:04 AM,62.6,62.6,100,29.91,10.0,North,8.1,-,N/A,Thunderstorm,Light Drizzle,360,2013-03-19 06:04:00
1:07 AM,62.6,62.6,100,29.91,10.0,North,8.1,-,N/A,Thunderstorm,Overcast,360,2013-03-19 06:07:00
1:16 AM,62.6,62.6,100,29.91,10.0,NNE,3.5,-,N/A,Rain-Thunderstorm,Rain,20,2013-03-19 06:16:00
1:29 AM,62.6,60.8,94,29.92,10.0,North,13.8,-,N/A,,Overcast,360,2013-03-19 06:29:00
1:34 AM,62.6,60.8,94,29.92,10.0,North,10.4,-,N/A,,Overcast,350,2013-03-19 06:34:00
1:58 AM,61.9,59.7,93,29.91,10.0,NE,4.6,-,0.01,,Overcast,40,2013-03-19 06:58:00
2:23 AM,60.8,59.0,94,29.90,10.0,East,4.6,-,N/A,,Mostly Cloudy,80,2013-03-19 07:23:00
2:58 AM,59.9,57.7,93,29.92,10.0,SSE,4.6,-,N/A,,Partly Cloudy,150,2013-03-19 07:58:00
3:58 AM,59.0,58.6,99,29.93,10.0,North,5.8,-,N/A,,Mostly Cloudy,350,2013-03-19 08:58:00
4:58 AM,57.6,57.2,99,29.96,10.0,North,1.2,-,N/A,,Partly Cloudy,360,2013-03-19 09:58:00
5:58 AM,58.6,57.2,95,29.99,10.0,North,9.2,-,N/A,,Overcast,360,2013-03-19 10:58:00
6:58 AM,58.3,56.8,95,30.01,10.0,North,9.2,-,N/A,,Overcast,10,2013-03-19 11:58:00
7:58 AM,58.1,56.8,96,30.04,10.0,NNE,5.8,-,N/A,,Mostly Cloudy,20,2013-03-19 12:58:00
8:13 AM,59.0,57.2,94,30.03,10.0,North,9.2,-,N/A,,Mostly Cloudy,10,2013-03-19 13:13:00
8:55 AM,59.2,55.8,88,30.05,10.0,NNE,10.4,-,N/A,,Mostly Cloudy,20,2013-03-19 13:55:00
9:55 AM,60.8,54.5,80,30.05,10.0,North,10.4,-,N/A,,Mostly Cloudy,10,2013-03-19 14:55:00
10:28 AM,62.6,53.6,72,30.05,10.0,NNE,9.2,17.3,N/A,,Scattered Clouds,30,2013-03-19 15:28:00
10:57 AM,64.0,53.6,69,30.06,10.0,NNE,9.2,-,N/A,,Partly Cloudy,30,2013-03-19 15:57:00
11:59 AM,67.6,53.6,61,30.04,10.0,Variable,4.6,-,N/A,,Partly Cloudy,0,2013-03-19 16:59:00
12:58 PM,70.7,53.6,55,30.03,10.0,Variable,5.8,-,N/A,,Clear,0,2013-03-19 17:58:00
1:55 PM,74.5,50.7,43,30.00,10.0,Variable,4.6,-,N/A,,Partly Cloudy,0,2013-03-19 18:55:00
2:26 PM,75.2,50.0,41,29.97,10.0,Variable,2.3,-,N/A,,Partly Cloudy,0,2013-03-19 19:26:00
2:55 PM,76.5,49.1,38,29.98,10.0,ENE,9.2,-,N/A,,Partly Cloudy,60,2013-03-19 19:55:00
3:55 PM,78.3,46.6,33,29.95,10.0,North,10.4,-,N/A,,Partly Cloudy,10,2013-03-19 20:55:00
4:57 PM,78.1,43.9,30,29.95,10.0,North,9.2,-,N/A,,Partly Cloudy,350,2013-03-19 21:57:00
5:55 PM,76.3,42.8,30,29.95,10.0,NNE,10.4,-,N/A,,Partly Cloudy,30,2013-03-19 22:55:00
6:55 PM,71.1,45.1,39,29.97,10.0,NE,4.6,-,N/A,,Scattered Clouds,40,2013-03-19 23:55:00
7:55 PM,66.7,44.8,45,29.99,10.0,NE,3.5,-,N/A,,Partly Cloudy,40,2013-03-20 00:55:00
8:55 PM,59.5,46.2,61,30.00,10.0,ENE,2.3,-,N/A,,Partly Cloudy,70,2013-03-20 01:55:00
9:55 PM,57.7,45.7,64,30.01,10.0,NNE,3.5,-,N/A,,Scattered Clouds,30,2013-03-20 02:55:00
10:55 PM,57.0,45.1,64,30.01,10.0,NNE,2.3,-,N/A,,Scattered Clouds,30,2013-03-20 03:55:00
11:55 PM,55.2,44.2,67,30.03,10.0,NNE,4.6,-,N/A,,Mostly Cloudy,20,2013-03-20 04:55:00